[[{"header":{"parameterUnit":"m.s-1","parameterCategory":1,"la1":30.2991,"la2":30.254,"lo1":-89.0895,"lo2":-89.0444,"dy":0.0017,"dx":0.0017,"nx":28,"ny":28,"refTime":"2025-04-11T03:00:00:Z","depth":0,"parameterNumber":2,"parameterNumberName":"U-component_of_WINDS"},"data":[0,0,0,0,0,0,0,0,0,0,0,0,0,0,0,0,0,0,0,0,0,0,0,0,0,0,0,0,0,0,0,0,0,0,0,0,0,0,0,0,0,0,0,0,0,0,0,0,0,0,0,0,0,0,0,0,0,0,-0.2517,-0.2517,0,-0.26,-0.2601,-0.2602,-0.2552,-0.2549,-0.2547,-0.2545,-0.2635,-0.2639,-0.2644,0,0,0,0,0,0,0,0,0,0,0,0,0,-0.2317,-0.2321,-0.2516,-0.2518,-0.2519,-0.26,-0.2601,-0.2602,-0.2552,-0.2549,-0.2546,-0.2544,-0.2633,-0.2639,-0.2644,0,0,0,0,0,0,0,0,0,0,0,0,0,-0.2403,-0.2323,-0.2516,-0.2503,-0.2503,-0.2599,-0.2601,-0.2602,-0.2553,-0.2549,-0.2546,-0.2542,-0.2631,-0.2638,-0.2645,-0.276,0,0,-0.2666,-0.2669,0,0,0,0,0,0,0,0,-0.2398,-0.241,-0.2504,-0.2504,-0.2504,-0.2562,-0.2564,-0.2655,-0.2554,-0.2534,-0.2545,-0.254,-0.2614,-0.2622,-0.2645,-0.2764,-0.2768,-0.2667,-0.2671,-0.2674,-0.2676,0,0,0,0,0,0,0,-0.2392,-0.2406,-0.255,-0.2506,-0.2506,-0.2494,-0.2503,-0.2581,-0.2593,-0.2536,-0.2532,-0.2542,-0.2613,-0.2639,-0.2647,-0.277,-0.2667,-0.2673,-0.2677,-0.268,-0.2987,-0.2991,0,0,0,0,0,0,-0.2387,-0.2402,-0.2547,-0.2552,-0.2441,-0.2501,-0.251,-0.2547,-0.2592,-0.2596,-0.2545,-0.254,-0.2629,-0.2639,-0.265,-0.279,-0.2674,-0.268,-0.2684,-0.2984,-0.2988,-0.2993,0,0,0,0,0,0,-0.2383,-0.24,-0.2544,-0.2476,-0.2493,-0.2508,-0.255,-0.255,-0.2576,-0.26,-0.2602,-0.257,-0.2626,-0.264,-0.2733,-0.2792,-0.2684,-0.269,-0.2979,-0.2985,-0.2991,-0.3068,0,0,0,0,0,0,-0.2377,-0.2399,-0.2443,-0.2477,-0.2497,-0.2625,-0.2554,-0.2555,-0.2588,-0.2581,-0.2623,-0.2626,-0.2625,-0.2723,-0.274,-0.28,-0.2695,-0.2974,-0.2982,-0.2989,-0.3061,-0.3076,-0.309,0,0,0,0,0,-0.237,-0.2462,-0.2445,-0.2463,-0.2552,-0.2628,-0.264,-0.2634,-0.2593,-0.2637,-0.2652,-0.2625,-0.2781,-0.2733,-0.2752,-0.2814,-0.297,-0.2979,-0.2988,-0.3054,-0.3073,-0.3089,0,0,0,0,0,0,-0.2436,-0.2466,-0.2448,-0.2553,-0.2588,-0.2619,-0.2676,-0.2655,-0.2703,-0.2695,-0.2688,-0.2698,-0.2795,-0.2813,-0.2758,-0.2928,-0.287,-0.2883,-0.2913,-0.2932,-0.2946,-0.2941,-0.2701,0,0,0,0,0,-0.2462,-0.2521,-0.2544,-0.2635,-0.2653,-0.2661,-0.2694,-0.2687,-0.2723,-0.2739,-0.276,-0.2798,-0.2855,-0.2894,-0.2948,-0.3061,-0.3071,-0.3113,-0.3128,-0.314,-0.3153,-0.3215,-0.3235,-0.3022,-0.3022,-0.3022,0,0,-0.2519,-0.2542,-0.258,-0.2649,-0.2675,-0.2737,-0.2674,-0.2742,-0.2789,-0.2749,-0.2839,-0.2855,-0.2896,-0.3,-0.3047,-0.3019,-0.3212,-0.3151,-0.316,-0.3167,-0.3226,-0.3247,-0.3265,-0.3028,-0.3027,-0.3026,0,0,-0.2653,-0.2676,-0.2755,-0.2781,-0.2821,-0.2825,-0.2844,-0.2877,-0.2887,-0.2975,-0.2947,-0.3001,-0.3101,-0.3132,-0.316,-0.3303,-0.3281,-0.3321,-0.3399,-0.3459,-0.3476,-0.3491,-0.3545,-0.3564,-0.3333,-0.3333,-0.3333,0,-0.2719,-0.281,-0.2798,-0.2869,-0.29,-0.2864,-0.2945,-0.2971,-0.3028,-0.3051,-0.3017,-0.314,-0.3165,-0.3276,-0.3311,-0.3334,-0.3357,-0.3319,-0.3474,-0.3489,-0.3503,-0.3554,-0.3574,-0.3338,-0.3337,-0.3337,-0.3336,0,-0.289,-0.2953,-0.3012,-0.3065,-0.3103,-0.3178,-0.3179,-0.3218,-0.3206,-0.3214,-0.3305,-0.3333,-0.3393,-0.3417,-0.3407,-0.3528,-0.3509,-0.3475,-0.3417,-0.3528,-0.3576,-0.3596,-0.3345,-0.3343,-0.3341,-0.334,0,0,-0.3074,-0.3116,-0.3139,-0.3163,-0.3202,-0.3251,-0.3324,-0.338,-0.3416,-0.3454,-0.3517,-0.36,-0.3568,-0.3601,-0.3593,-0.3646,-0.376,-0.3606,-0.3606,-0.3636,-0.3896,-0.3925,-0.3947,-0.3743,-0.3747,-0.375,-0.3894,0,-0.3213,-0.334,-0.333,-0.3451,-0.351,-0.3475,-0.3538,-0.357,-0.3578,-0.363,-0.3639,-0.37,-0.3652,-0.3672,-0.3722,-0.3736,-0.3813,-0.3724,-0.3804,-0.3807,-0.3799,-0.3972,-0.4003,-0.4138,-0.3912,-0.3915,-0.3918,0,-0.3394,-0.3438,-0.3564,-0.3593,-0.3618,-0.3675,-0.3726,-0.3775,-0.381,-0.3812,-0.3847,-0.383,-0.3905,-0.3841,-0.3944,-0.3884,-0.3915,-0.3927,-0.3932,-0.3943,-0.3873,-0.3991,-0.418,-0.4202,-0.3947,-0.3944,-0.3942,0,-0.3519,-0.3609,-0.3696,-0.3717,-0.3753,-0.3794,-0.3811,-0.3842,-0.3877,-0.392,-0.3943,-0.3995,-0.4025,-0.4066,-0.4064,-0.4017,-0.417,-0.4105,-0.4176,-0.4177,-0.4214,-0.4213,-0.4415,-0.4227,-0.4227,-0.4227,-0.4226,0,-0.3679,-0.3759,-0.3753,-0.3807,-0.3895,-0.3882,-0.3969,-0.3982,-0.4009,-0.4066,-0.4037,-0.4091,-0.4082,-0.4137,-0.4135,-0.4222,-0.4235,-0.424,-0.424,-0.4246,-0.4246,-0.427,-0.4262,-0.4232,-0.4231,-0.423,-0.4229,0,-0.3836,-0.3835,-0.3928,-0.3953,-0.3961,-0.4025,-0.4047,-0.4099,-0.4103,-0.4175,-0.4191,-0.4199,-0.4261,-0.4261,-0.4332,-0.4331,-0.4439,-0.4425,-0.4427,-0.4426,-0.4498,-0.4493,-0.4726,-0.4757,-0.4546,-0.4548,-0.455,0,-0.3941,-0.4,-0.4031,-0.4066,-0.4086,-0.4143,-0.4177,-0.4165,-0.4202,-0.4245,-0.4292,-0.435,-0.4398,-0.4499,-0.4511,-0.4566,-0.4556,-0.4633,-0.4564,-0.4568,-0.4561,-0.4559,-0.4566,-0.4649,-0.4651,-0.4653,-0.4655,0,-0.4127,-0.4122,-0.4172,-0.4222,-0.4262,-0.4301,-0.4337,-0.4367,-0.4359,-0.4402,-0.4465,-0.4501,-0.4572,-0.4632,-0.4684,-0.4702,-0.4679,-0.4675,-0.4695,-0.4704,-0.4704,-0.4708,-0.4469,-0.4672,-0.467,-0.4669,-0.4668,-0.4667,-0.4263,-0.4315,-0.4345,-0.4401,-0.4425,-0.4459,-0.4509,-0.4517,-0.4569,-0.4626,-0.4615,-0.4685,-0.4717,-0.4784,-0.4806,-0.4862,-0.4835,-0.4863,-0.4871,-0.4879,-0.4889,-0.4691,-0.4871,-0.487,-0.487,-0.4869,-0.4869,0,-0.4451,-0.4467,-0.4518,-0.4568,-0.4612,-0.4582,-0.4619,-0.4659,-0.472,-0.4751,-0.4797,-0.4869,-0.4925,-0.4941,-0.4996,-0.5037,-0.5028,-0.5053,-0.5052,-0.5057,-0.4908,-0.4887,-0.5059,-0.5059,-0.5059,-0.5059,-0.5059,-0.5059,-0.4554,-0.4641,-0.464,-0.4738,-0.4754,-0.4821,-0.4845,-0.4876,-0.4901,-0.4981,-0.5028,-0.5036,-0.5061,-0.5117,-0.5169,-0.5171,-0.5195,-0.5225,-0.5224,-0.5086,-0.5067,-0.5049,-0.5029,-0.5229,-0.5229,-0.5369,-0.537,-0.5371]},{"header":{"parameterUnit":"m.s-1","parameterCategory":1,"la1":30.2991,"la2":30.254,"lo1":-89.0895,"lo2":-89.0444,"dy":0.0017,"dx":0.0017,"nx":28,"ny":28,"refTime":"2025-04-11T03:00:00:Z","depth":0,"parameterNumber":3,"parameterNumberName":"V-component_of_WINDS"},"data":[0,0,0,0,0,0,0,0,0,0,0,0,0,0,0,0,0,0,0,0,0,0,0,0,0,0,0,0,0,0,0,0,0,0,0,0,0,0,0,0,0,0,0,0,0,0,0,0,0,0,0,0,0,0,0,0,0,0,-4.8603,-4.8605,0,-4.8763,-4.8765,-4.8767,-4.8714,-4.8711,-4.8707,-4.8704,-4.8864,-4.8872,-4.8879,0,0,0,0,0,0,0,0,0,0,0,0,0,-4.8248,-4.8255,-4.8603,-4.8605,-4.8607,-4.8763,-4.8765,-4.8767,-4.8715,-4.8711,-4.8706,-4.8703,-4.8862,-4.8871,-4.888,0,0,0,0,0,0,0,0,0,0,0,0,0,-4.8405,-4.8257,-4.8603,-4.86,-4.8601,-4.8762,-4.8765,-4.8768,-4.8716,-4.8711,-4.8705,-4.8701,-4.8859,-4.887,-4.8881,-4.9053,0,0,-4.8915,-4.892,0,0,0,0,0,0,0,0,-4.8396,-4.8418,-4.8598,-4.86,-4.8602,-4.8713,-4.8698,-4.8863,-4.8717,-4.8672,-4.8704,-4.8698,-4.8818,-4.8832,-4.8874,-4.9061,-4.9068,-4.8916,-4.8923,-4.8928,-4.8931,0,0,0,0,0,0,0,-4.8385,-4.841,-4.8666,-4.8601,-4.8603,-4.8589,-4.8606,-4.8729,-4.8772,-4.8676,-4.8672,-4.8692,-4.8818,-4.8863,-4.8877,-4.907,-4.8916,-4.8926,-4.8933,-4.8937,-4.9405,-4.941,0,0,0,0,0,0,-4.8374,-4.8402,-4.8661,-4.8671,-4.8484,-4.86,-4.8618,-4.8683,-4.8771,-4.8779,-4.8696,-4.8689,-4.8846,-4.8864,-4.8882,-4.9089,-4.8928,-4.8938,-4.8945,-4.9399,-4.9406,-4.9412,0,0,0,0,0,0,-4.8366,-4.8397,-4.8655,-4.8536,-4.8567,-4.8611,-4.8684,-4.8689,-4.8733,-4.8786,-4.8793,-4.8735,-4.8843,-4.8867,-4.9011,-4.9094,-4.8943,-4.8953,-4.9392,-4.9401,-4.9409,-4.9505,0,0,0,0,0,0,-4.8356,-4.8395,-4.8462,-4.8538,-4.8574,-4.8783,-4.869,-4.8696,-4.8753,-4.8745,-4.8824,-4.8832,-4.8841,-4.8995,-4.9022,-4.9107,-4.8962,-4.9385,-4.9396,-4.9406,-4.9494,-4.9515,-4.9533,0,0,0,0,0,-4.8344,-4.8482,-4.8466,-4.8497,-4.8659,-4.8787,-4.8808,-4.8816,-4.876,-4.8827,-4.8861,-4.8829,-4.908,-4.901,-4.904,-4.9129,-4.938,-4.9393,-4.9406,-4.9485,-4.9511,-4.9533,0,0,0,0,0,0,-4.8415,-4.8492,-4.8475,-4.8642,-4.8709,-4.8778,-4.8863,-4.8844,-4.8927,-4.8916,-4.8921,-4.8939,-4.9087,-4.9123,-4.9043,-4.93,-4.9222,-4.9241,-4.9272,-4.9297,-4.9316,-4.9304,-4.8971,0,0,0,0,0,-4.845,-4.8549,-4.8611,-4.8752,-4.8787,-4.8819,-4.8876,-4.8876,-4.8945,-4.8972,-4.9017,-4.9083,-4.9177,-4.9239,-4.9328,-4.9499,-4.9514,-4.9575,-4.9594,-4.961,-4.9627,-4.9718,-4.9746,-4.9454,-4.9454,-4.9454,0,0,-4.8523,-4.8578,-4.864,-4.8768,-4.882,-4.8921,-4.8843,-4.8954,-4.9028,-4.8989,-4.9128,-4.9163,-4.9237,-4.9396,-4.9467,-4.943,-4.9711,-4.9626,-4.9639,-4.9647,-4.9734,-4.9762,-4.9786,-4.9463,-4.9461,-4.946,0,0,-4.8709,-4.8761,-4.8884,-4.8937,-4.9017,-4.9037,-4.9067,-4.914,-4.9161,-4.9302,-4.9273,-4.9361,-4.9523,-4.9577,-4.9626,-4.983,-4.9804,-4.9859,-4.9961,-5.005,-5.0073,-5.0093,-5.0165,-5.0191,-4.9875,-4.9876,-4.9876,0,-4.879,-4.8943,-4.895,-4.9063,-4.9119,-4.9088,-4.9212,-4.9263,-4.9367,-4.9406,-4.9362,-4.9563,-4.9611,-4.9781,-4.9831,-4.9872,-4.9904,-4.985,-5.0069,-5.009,-5.0109,-5.0178,-5.0205,-4.9882,-4.9881,-4.988,-4.988,0,-4.9038,-4.9144,-4.9234,-4.9336,-4.9402,-4.952,-4.9543,-4.9609,-4.9603,-4.9628,-4.977,-4.9826,-4.9926,-4.9966,-4.9961,-5.0135,-5.0109,-5.0067,-4.9989,-5.0143,-5.0207,-5.0234,-4.989,-4.9888,-4.9886,-4.9885,0,0,-4.9274,-4.9378,-4.9411,-4.9456,-4.9541,-4.9622,-4.9737,-4.9835,-4.9891,-4.9963,-5.0059,-5.0196,-5.0158,-5.0213,-5.0214,-5.0292,-5.0449,-5.0241,-5.0243,-5.0277,-5.0642,-5.0673,-5.0703,-5.0432,-5.0437,-5.0441,-5.0636,0,-4.9467,-4.9671,-4.968,-4.9865,-4.9962,-4.9934,-5.0034,-5.0095,-5.0121,-5.0206,-5.0233,-5.033,-5.0273,-5.0306,-5.0382,-5.0414,-5.0523,-5.04,-5.052,-5.0524,-5.0502,-5.0737,-5.077,-5.0951,-5.0661,-5.0665,-5.0669,0,-4.9719,-4.98,-4.9995,-5.0065,-5.0106,-5.0196,-5.0286,-5.0368,-5.0436,-5.0449,-5.051,-5.0499,-5.0615,-5.0533,-5.0692,-5.0608,-5.0657,-5.068,-5.0687,-5.0699,-5.0606,-5.0754,-5.1009,-5.1036,-5.0709,-5.0705,-5.0702,0,-4.9871,-5.0028,-5.0165,-5.0205,-5.029,-5.0353,-5.0391,-5.0455,-5.0513,-5.0591,-5.0628,-5.0718,-5.0767,-5.0836,-5.0849,-5.0788,-5.1008,-5.0927,-5.1021,-5.1021,-5.1069,-5.1066,-5.1335,-5.1101,-5.1101,-5.11,-5.11,0,-5.0085,-5.0205,-5.0234,-5.0319,-5.0452,-5.046,-5.0591,-5.0624,-5.0681,-5.0769,-5.0749,-5.0833,-5.0845,-5.0931,-5.0941,-5.1071,-5.1093,-5.1106,-5.1107,-5.1108,-5.1106,-5.114,-5.1127,-5.1107,-5.1106,-5.1104,-5.1103,0,-5.0277,-5.0302,-5.0449,-5.0517,-5.0536,-5.0632,-5.0689,-5.0769,-5.0792,-5.0904,-5.0931,-5.0967,-5.1067,-5.1086,-5.1204,-5.1211,-5.1365,-5.1354,-5.1342,-5.1341,-5.1434,-5.1425,-5.1734,-5.1774,-5.1515,-5.1517,-5.1519,0,-5.0412,-5.0504,-5.0582,-5.064,-5.0682,-5.0776,-5.0835,-5.0845,-5.0907,-5.0992,-5.1061,-5.1159,-5.1238,-5.1398,-5.1434,-5.1523,-5.1514,-5.1616,-5.1527,-5.1524,-5.1514,-5.1509,-5.1517,-5.1633,-5.1636,-5.1638,-5.164,0,-5.0649,-5.0656,-5.0743,-5.0834,-5.0905,-5.0976,-5.1044,-5.1093,-5.1112,-5.1182,-5.1285,-5.1346,-5.1466,-5.1563,-5.1652,-5.1689,-5.1668,-5.1668,-5.1694,-5.1695,-5.1685,-5.1691,-5.1388,-5.166,-5.1658,-5.1657,-5.1656,-5.1655,-5.0816,-5.0896,-5.0963,-5.106,-5.1112,-5.1176,-5.1254,-5.1286,-5.1372,-5.1472,-5.1472,-5.1584,-5.1648,-5.1765,-5.1808,-5.1894,-5.1862,-5.19,-5.191,-5.1919,-5.1927,-5.1671,-5.191,-5.191,-5.1909,-5.1909,-5.1908,0,-5.1051,-5.1093,-5.1181,-5.1277,-5.1353,-5.1327,-5.14,-5.1465,-5.1564,-5.1626,-5.1704,-5.182,-5.1914,-5.1956,-5.2048,-5.2109,-5.2101,-5.2132,-5.2128,-5.2136,-5.1952,-5.1919,-5.2137,-5.2137,-5.2137,-5.2137,-5.2137,-5.2137,-5.1182,-5.1316,-5.1331,-5.149,-5.1529,-5.164,-5.1684,-5.1742,-5.1791,-5.1923,-5.2001,-5.2028,-5.2082,-5.2177,-5.2261,-5.2271,-5.2305,-5.2341,-5.2346,-5.2173,-5.215,-5.2127,-5.2097,-5.2348,-5.2349,-5.2524,-5.2525,-5.2526]}]]